This is the latest recevied weather packets stored in our database for station/object CE2KVL-1. If no packets are shown the sender has not sent any weather packets the latest 10 day(s).
| Time | Temp. | Humidity | Pressure | Rain* | Wind** | Luminosity | Snow |
|---|---|---|---|---|---|---|---|
| 1778011683 | 18.89° C | 50% | 1016.8 hPa | - | - | - | - |
| 1778011083 | 18.89° C | 48% | 1017.1 hPa | - | - | - | - |
| 1778009883 | 18.89° C | 44% | 1016.8 hPa | - | - | - | - |
| 1778009583 | 18.89° C | 43% | 1016.8 hPa | - | - | - | - |
| 1778009283 | 18.89° C | 42% | 1016.9 hPa | - | - | - | - |
| 1778008983 | 19.44° C | 43% | 1017 hPa | - | - | - | - |
| 1778008683 | 19.44° C | 42% | 1016.5 hPa | - | - | - | - |
| 1778008445 | 19.44° C | 43% | 1016.4 hPa | - | - | - | - |
| 1778008083 | 19.44° C | 41% | 1016.7 hPa | - | - | - | - |
| 1778007783 | 19.44° C | 42% | 1016.2 hPa | - | - | - | - |
| 1778007483 | 19.44° C | 42% | 1017.1 hPa | - | - | - | - |
| 1778006283 | 20.56° C | 37% | 1016.8 hPa | - | - | - | - |
| 1778005983 | 21.11° C | 36% | 1015.6 hPa | - | - | - | - |
| 1778005683 | 21.11° C | 35% | 1015.7 hPa | - | - | - | - |
| 1778005084 | 21.11° C | 35% | 1015.3 hPa | - | - | - | - |
| 1778004183 | 20.56° C | 34% | 1015.6 hPa | - | - | - | - |
| 1778002683 | 20.56° C | 35% | 1015.4 hPa | - | - | - | - |
| 1778002383 | 20.56° C | 36% | 1015.4 hPa | - | - | - | - |
| 1778002082 | 20.56° C | 36% | 1015.7 hPa | - | - | - | - |
| 1778001783 | 20.56° C | 37% | 1015.4 hPa | - | - | - | - |
| 1778001482 | 20.56° C | 37% | 1015.5 hPa | - | - | - | - |
| 1778001182 | 20.56° C | 39% | 1015.4 hPa | - | - | - | - |
| 1778000883 | 20.56° C | 39% | 1015.5 hPa | - | - | - | - |
| 1778000283 | 20.56° C | 39% | 1015.2 hPa | - | - | - | - |
| 1777999083 | 20.56° C | 41% | 1015.5 hPa | - | - | - | - |
* Rain since midnight (hover to see other rain measurements)
** Current wind speed in m/s (hover to see current wind gust speed)